This demonstration page uses our WeatherBlox Daily Observations layout. Learn more.

Left ArrowRight Arrow

Hourly Observations for September 9, 2015

Temp ( °F °C ) Dew Point ( °F °C ) Humidity (%) Winds ( mph kmh ) Pressure ( in mb ) Visibility ( mi km ) Precip ( " mm )
12:53 am 00:53 Clear 72 22.2 67 19.4 84 84 Calm 29.89 1012 10 16.0934 0 0
1:53 am 01:53 Clear 69 20.6 67 19.4 93 93 WNW 3 6 29.9 1013 10 16.0934 0 0
2:53 am 02:53 Partly Cloudy 70 21.1 67 19.4 90 90 Calm 29.91 1013 10 16.0934 0 0
3:53 am 03:53 Clear 68 20 66 18.9 93 93 Calm 29.91 1013 10 16.0934 0 0
4:53 am 04:53 Clear 67 19.4 66 18.9 97 97 Calm 29.92 1013 10 16.0934 0 0
5:53 am 05:53 Clear 66 18.9 65 18.3 96 96 Calm 29.91 1013 8 12.87472 0 0
6:53 am 06:53 Clear 66 18.9 64 17.8 93 93 Calm 29.92 1013 9 14.48406 0 0
7:53 am 07:53 Sunny 69 20.6 67 19.4 93 93 Calm 29.95 1014 10 16.0934 0 0.0254
8:53 am 08:53 Partly Cloudy 74 23.3 68 20 82 82 WNW 3 6 29.96 1015 10 16.0934 0 0
9:53 am 09:53 Mostly Cloudy 75 23.9 69 20.6 82 82 Calm 29.96 1015 10 16.0934 0 0
10:53 am 10:53 Mostly Cloudy 76 24.4 69 20.6 79 79 Calm 29.97 1015 10 16.0934 0 0
11:53 am 11:53 Mostly Cloudy 76 24.4 69 20.6 79 79 Calm 29.96 1015 10 16.0934 0 0
12:53 pm 12:53 Cloudy with Light Rain 78 25.6 69 20.6 74 74 W 5 7 29.96 1014 10 16.0934 0 0.0254
1:53 pm 13:53 Cloudy with Light Rain 76 24.4 70 21.1 82 82 WNW 5 7 29.95 1014 10 16.0934 0 0.0254
2:53 pm 14:53 Cloudy with Light Rain 76 24.4 70 21.1 82 82 Calm 29.93 1014 10 16.0934 0 0.0254
3:53 pm 15:53 Cloudy with Light Rain 75 23.9 73 22.8 94 94 SSW 3 6 29.92 1013 6 9.65604 0.02 0.508
4:53 pm 16:53 Cloudy with Light Rain 76 24.4 73 22.8 91 91 W 5 7 29.9 1013 10 16.0934 0 0.0254
5:53 pm 17:53 Mostly Cloudy 76 24.4 72 22.2 88 88 VRB 3 6 29.88 1012 10 16.0934 0 0.0254
6:53 pm 18:53 Partly Cloudy 77 25 71 21.7 82 82 NW 3 6 29.88 1012 10 16.0934 0 0
7:24 pm 19:24 Mostly Cloudy 76 24.4 70 21.1 82 82 NNE 12 19 29.91 1013 10 16.0934 0 0
7:37 pm 19:37 Mostly Cloudy 76 24.4 68 20 77 77 NNE 7 11 29.91 1013 10 16.0934 0 0
7:53 pm 19:53 Mostly Cloudy 75 23.9 66 18.9 74 74 N 9 15 29.9 1013 10 16.0934 0 0
8:53 pm 20:53 Cloudy with Light Rain 74 23.3 66 18.9 76 76 N 6 9 29.92 1013 10 16.0934 0 0.0254
9:53 pm 21:53 Cloudy 73 22.8 65 18.3 76 76 N 7 11 29.93 1014 10 16.0934 0 0.0254
10:53 pm 22:53 Mostly Cloudy 72 22.2 65 18.3 79 79 N 5 7 29.93 1013 10 16.0934 0 0
11:53 pm 23:53 Mostly Cloudy 71 21.7 65 18.3 81 81 NNE 6 9 29.92 1013 10 16.0934 0 0

Powered by AerisWeather